Location: Observatoire POLARIS
(46.3550°N, 73.3861°W)
Time: 23:14:58
(UTC-05:00)

ISS - Visible Passes

Search period start: 20 November 2017 00:00
Search period end: 30 November 2017 00:00
Orbit: 402 x 407 km, 51.6° (Epoch: 21 November)

Date Brightness Start Highest point End Pass type
(mag) Time Alt. Az. Time Alt. Az. Time Alt. Az.
26 Nov -1.1 18:35:12 10° SSW 18:35:49 14° SSW 18:35:49 14° SSW visible
27 Nov -2.0 17:43:39 10° S 17:45:53 18° SE 17:45:53 18° SE visible
28 Nov -1.3 16:53:26 10° SE 16:53:51 10° SE 16:54:15 10° SE visible
28 Nov -2.3 18:26:30 10° SW 18:28:32 34° SW 18:28:32 34° SW visible
29 Nov -3.0 17:34:24 10° SSW 17:37:28 36° SE 17:38:25 29° ESE visible
29 Nov -0.4 19:10:41 10° W 19:11:05 13° W 19:11:05 13° W visible
